Theta_e
357 363 365 365 364 364 363 363 363 363 362 362 363 363 363 362 363 363 364 364 363 363 361 359 356 354 355 355 355 357 358 358 357 354 355 354 352 353 354 357 350 346 349
360 363 364 364 364 364 363 363 363 362 362 362 363 363 363 362 362 362 363 363 363 363 359 357 353 353 354 355 354 355 356 355 356 356 354 353 351 352 352 349 348 347 348
359 362 362 364 364 364 363 363 362 362 362 362 362 362 363 363 362 362 362 362 362 360 357 354 352 353 354 354 353 353 353 353 353 352 352 348 346 351 351 350 349 348 347
359 360 360 364 364 364 363 362 361 362 362 362 362 362 363 363 362 362 361 361 360 356 354 352 352 354 354 354 353 353 353 354 356 354 349 348 343 352 350 350 349 349 348
357 360 361 364 363 364 364 361 361 361 361 361 362 362 363 362 362 361 361 360 359 354 352 351 352 354 354 353 354 354 354 354 352 345 338 342 341 352 353 352 349 349 350
356 361 364 364 363 364 364 362 361 361 361 361 362 362 362 362 361 361 360 359 358 355 351 351 354 354 355 355 354 352 349 347 348 337 339 344 341 355 355 353 353 350 350
355 360 363 364 363 364 364 362 362 361 361 360 361 362 362 360 360 360 360 359 357 356 353 351 350 349 349 349 348 347 345 346 338 336 336 343 346 353 356 354 353 352 351
356 358 360 364 364 363 363 362 361 360 360 360 360 361 361 360 360 360 359 359 357 355 353 350 348 346 345 344 344 345 344 344 337 333 330 341 349 354 356 355 354 353 352
357 356 357 360 363 364 362 361 361 360 360 359 359 359 359 359 359 359 358 357 356 354 352 349 346 345 343 342 342 343 343 344 334 333 332 340 352 354 356 354 354 355 355
356 355 354 356 359 358 360 362 361 360 359 358 359 359 359 358 358 358 355 356 356 354 351 349 346 344 343 342 342 343 344 344 334 331 329 334 350 354 354 354 354 354 355
355 352 351 354 354 355 357 360 361 362 360 359 359 358 356 354 354 356 354 356 356 354 351 349 346 345 344 344 344 345 345 333 329 328 329 344 349 350 349 347 348 350 352
350 350 350 351 352 352 358 357 355 358 356 356 356 355 353 350 351 353 353 355 355 354 352 350 347 346 345 332 330 344 336 333 329 327 328 349 350 353 352 351 352 352 353
333 349 349 350 350 349 349 355 355 355 354 354 353 353 351 350 351 350 346 350 347 351 344 346 342 338 332 329 327 327 333 331 328 328 338 351 351 354 354 353 353 354 354
316 339 348 349 348 346 346 353 353 353 353 353 352 353 351 348 346 346 344 344 343 343 338 336 334 333 330 328 327 329 330 330 330 331 339 352 350 352 353 354 354 355 354
316 344 349 351 345 345 347 351 350 350 352 352 352 353 352 349 346 344 343 341 341 339 336 331 331 331 329 328 329 331 332 333 334 336 337 352 349 350 353 355 355 355 356
316 335 348 347 345 344 348 349 348 346 348 349 350 352 353 351 347 345 341 340 339 338 336 331 332 330 329 331 331 332 335 339 338 338 339 342 349 349 351 354 356 356 357
313 322 343 337 337 340 350 351 352 347 345 346 346 348 349 349 344 346 343 341 341 338 335 332 330 334 332 333 333 335 337 341 341 343 344 342 343 349 350 352 354 356 357
320 322 325 334 349 351 353 351 351 353 349 346 345 346 347 347 346 344 343 342 340 339 335 334 331 333 336 333 330 333 341 342 342 342 343 343 344 344 348 351 352 354 355
316 317 318 323 333 348 352 354 352 350 350 348 346 345 346 346 347 345 345 342 340 338 336 338 333 333 333 330 331 332 336 340 341 346 344 344 342 344 342 346 350 350 352
317 319 318 318 318 329 327 349 354 352 349 351 349 347 345 345 344 347 347 342 339 339 336 335 334 334 333 332 332 332 336 338 341 341 343 343 343 344 342 342 344 346 349
317 315 317 318 321 326 329 335 345 343 347 347 349 348 344 347 345 344 348 343 341 338 337 334 331 331 330 333 331 329 332 338 337 342 341 341 340 340 342 345 342 340 342
317 320 324 324 329 332 333 334 340 344 348 350 350 349 348 346 348 345 345 345 342 341 336 336 335 332 332 331 330 327 323 326 335 339 340 340 339 338 341 343 346 343 343
315 317 320 324 325 325 326 331 325 334 342 342 344 346 348 348 348 348 346 344 343 341 338 336 336 333 330 333 332 327 323 319 328 336 338 338 337 336 340 340 340 342 340
314 317 321 320 320 321 324 323 322 323 325 330 340 344 347 349 348 347 345 344 342 342 339 337 337 335 332 329 330 333 334 330 325 324 334 336 338 339 338 337 338 339 341
314 313 318 319 317 323 320 321 322 321 324 327 333 338 342 345 348 347 347 344 342 341 341 339 336 337 334 330 329 330 332 330 330 325 322 328 330 333 337 338 336 332 331
312 313 313 313 316 320 321 320 320 319 321 323 326 329 336 342 344 346 346 346 344 343 340 340 338 336 337 334 334 332 332 330 325 324 321 321 324 326 331 332 330 328 328
Wind_Speed
6 11 18 19 20 19 19 17 15 16 16 16 16 16 15 16 15 15 15 14 14 13 14 13 12 12 12 13 13 11 11 10 11 12 12 11 12 12 11 14 12 9 10
17 10 17 20 20 20 18 18 16 16 17 16 16 15 15 15 15 14 13 12 12 12 13 11 11 11 12 12 11 9 8 8 8 8 9 9 9 11 13 14 12 8 9
16 12 12 18 20 20 19 17 16 15 16 16 16 15 14 14 15 13 13 12 12 13 12 11 11 11 10 10 8 6 6 6 5 4 3 3 4 8 13 13 11 10 9
15 11 10 17 18 19 18 16 16 16 16 16 15 15 14 13 14 13 12 11 11 12 11 10 10 10 9 9 7 4 3 4 4 4 2 5 6 9 11 12 10 9 8
14 10 10 17 18 19 18 18 16 16 16 16 15 15 14 13 12 12 11 10 10 11 11 11 10 9 8 7 5 3 3 6 8 7 3 5 6 9 10 9 10 9 9
14 12 13 14 17 18 18 17 17 16 17 15 15 15 15 13 12 11 11 10 9 9 10 9 9 8 7 6 4 2 3 6 8 6 6 6 6 10 9 9 9 9 8
13 12 10 12 13 16 17 17 17 16 15 17 15 15 14 13 12 12 12 11 10 9 9 9 7 7 6 5 3 1 2 5 6 5 4 3 7 12 10 9 8 7 7
16 13 12 14 12 12 15 15 15 16 16 14 17 15 14 13 12 11 10 9 9 9 9 8 7 6 5 4 3 1 3 7 6 6 3 3 10 11 10 9 8 7 5
17 15 11 10 12 12 12 13 14 14 15 16 14 17 16 14 13 12 11 10 9 8 8 7 7 6 5 5 4 4 5 8 6 4 6 3 11 11 11 9 8 8 7
17 16 14 10 9 8 8 12 13 13 13 15 16 14 15 16 14 13 12 11 10 10 9 9 8 7 6 6 6 7 8 9 6 5 2 4 10 11 11 9 9 8 8
13 15 15 15 12 9 7 9 12 15 14 13 13 15 12 5 8 10 10 11 11 10 10 10 9 8 8 8 9 10 9 4 6 4 3 9 13 12 11 10 9 9 8
14 15 16 17 17 12 9 8 6 7 9 8 8 9 7 7 7 10 11 14 13 12 11 10 10 10 9 4 4 10 4 5 5 5 4 15 14 12 11 10 10 9 9
8 11 15 13 13 14 11 9 6 5 5 6 9 9 7 7 7 7 5 7 6 11 5 7 6 5 6 5 5 5 5 6 5 5 6 16 15 13 12 11 11 10 10
4 12 16 9 10 6 5 7 9 7 8 7 10 12 9 5 6 8 6 7 6 5 7 6 4 6 8 8 7 7 7 6 5 5 6 17 13 12 13 12 12 11 11
7 15 17 17 14 12 12 11 9 10 9 10 10 11 10 10 7 7 8 8 8 6 7 6 7 8 7 8 7 8 8 8 8 3 3 13 13 14 14 14 14 13 13
1 10 9 12 10 10 10 13 11 9 10 10 10 11 12 9 9 10 9 10 9 9 9 9 9 8 8 7 9 8 7 6 6 6 4 6 11 12 12 14 14 14 14
2 10 11 12 7 5 10 8 8 9 7 10 10 13 16 12 10 9 9 11 11 10 12 9 10 8 8 9 11 8 7 8 6 7 5 5 7 13 13 13 14 13 14
8 8 8 6 10 12 8 8 6 7 9 8 10 8 15 14 10 11 9 9 9 10 12 12 10 11 11 9 5 6 6 9 8 9 6 5 5 6 11 14 13 13 13
7 5 5 5 9 5 5 5 5 5 4 6 6 8 13 17 15 12 9 10 6 8 9 9 11 10 10 6 7 5 5 6 7 8 8 8 8 6 5 12 16 14 13
7 7 6 3 2 7 4 4 4 4 4 4 4 5 9 8 13 12 10 10 9 7 8 5 8 6 7 9 8 7 8 6 7 7 10 7 6 7 7 7 6 8 15
3 3 5 5 1 2 2 1 3 4 4 5 5 7 6 8 14 15 10 9 8 12 9 6 3 6 5 5 4 3 5 7 6 7 5 5 6 6 6 7 4 4 4
8 9 9 8 8 4 1 2 2 3 4 5 7 8 11 12 13 13 15 12 14 10 14 10 11 7 7 5 6 1 3 4 3 5 5 5 8 4 5 7 6 6 4
7 7 7 6 5 4 5 3 4 4 4 5 9 8 11 11 14 18 18 16 14 12 11 14 12 16 11 8 13 6 2 5 2 2 6 4 4 4 4 5 1 4 5
4 6 6 5 4 3 4 3 3 2 6 7 6 8 11 13 15 15 17 17 16 14 17 13 12 14 13 12 2 9 1 4 4 1 2 3 5 5 5 2 3 5 4
7 5 5 5 5 2 3 3 2 3 4 7 9 12 13 14 17 17 18 17 15 13 16 18 18 16 14 11 12 5 3 2 2 3 3 4 2 4 2 3 3 4 4
5 6 5 5 4 5 4 5 4 6 8 8 11 12 11 11 13 17 18 18 19 16 19 18 18 18 16 16 11 11 11 9 5 5 2 3 4 3 3 4 4 5 5
Wind_Direction
139 147 143 134 129 129 128 128 126 123 118 114 109 105 100 97 96 97 103 110 112 112 111 104 100 98 96 95 87 84 82 83 89 93 98 100 105 99 73 95 88 91 83
131 149 147 137 134 132 133 134 135 131 125 122 117 113 110 110 108 105 106 109 109 107 102 100 100 100 98 94 92 86 85 80 79 84 108 108 105 108 97 90 95 93 88
129 139 150 140 137 137 137 136 136 133 128 127 124 123 118 115 115 114 114 115 116 116 116 116 114 113 109 104 96 85 74 77 79 84 114 122 128 122 109 105 105 103 98
129 138 152 143 139 137 137 137 139 135 133 133 131 129 127 124 122 122 123 121 117 119 121 121 120 119 117 110 104 90 49 17 12 342 231 192 161 146 120 117 117 116 112
129 133 156 146 142 142 142 141 143 139 139 139 138 135 133 131 129 129 129 127 129 131 132 129 127 126 126 122 115 81 9 356 345 330 320 154 158 145 136 130 126 113 112
134 135 150 149 146 147 147 146 146 146 144 144 144 141 140 141 141 140 139 139 141 142 139 135 135 136 136 132 121 106 345 338 327 317 333 165 145 152 151 140 131 133 129
129 135 142 143 148 148 149 150 151 148 151 149 150 147 147 148 150 152 152 153 151 149 143 141 143 146 148 150 156 171 309 314 306 301 342 173 144 156 158 148 147 151 153
136 143 149 143 142 149 151 152 154 153 153 158 153 152 153 153 156 156 157 157 156 153 150 148 153 157 163 173 181 227 296 302 312 310 337 211 157 161 165 160 166 176 175
139 139 144 144 144 146 149 153 157 160 161 159 164 157 158 159 160 161 163 163 161 157 154 155 160 168 182 197 203 228 255 276 284 283 316 181 172 170 170 173 182 192 192
144 145 145 141 139 137 151 157 160 163 168 167 164 165 166 163 165 168 168 170 166 165 165 168 172 180 197 218 227 228 238 256 267 270 213 215 193 175 174 183 193 207 209
146 149 153 151 151 154 153 170 166 166 166 172 170 165 158 164 169 171 173 178 175 174 174 177 182 194 207 221 233 238 238 241 259 253 214 196 201 181 178 185 202 211 221
159 162 163 161 158 161 165 158 164 179 181 169 169 168 171 169 179 181 187 185 181 181 182 186 194 200 208 220 246 245 230 235 250 252 236 189 203 186 182 191 203 210 216
159 166 174 161 157 164 169 160 172 174 175 178 180 175 182 189 189 191 186 184 182 188 184 192 196 201 216 219 226 224 217 223 239 245 224 189 198 187 189 201 210 211 215
222 174 143 142 138 177 146 175 173 183 181 187 190 180 186 198 191 193 178 183 181 189 190 189 198 210 217 225 220 231 213 217 227 241 218 194 194 194 197 206 216 220 217
21 142 148 163 146 194 176 174 187 183 187 190 190 192 186 194 204 185 180 182 187 187 196 198 198 209 217 225 230 221 214 219 227 210 189 199 197 205 206 209 214 219 226
340 142 152 162 195 187 187 182 181 187 189 189 186 197 200 205 200 200 179 186 195 191 194 197 199 208 210 211 226 228 233 230 232 230 193 209 210 213 219 217 224 223 225
293 113 162 185 213 249 233 178 172 189 187 198 196 196 194 195 210 215 198 192 192 193 190 207 200 203 219 209 213 211 223 224 223 226 208 198 207 221 223 228 231 229 228
49 59 105 127 189 199 215 231 187 183 181 189 201 191 199 198 192 210 222 214 199 200 196 190 213 197 197 204 215 225 219 224 215 225 214 208 191 210 225 227 231 233 232
131 94 37 66 115 161 219 218 233 240 204 190 190 199 197 201 199 200 208 216 201 210 225 205 203 207 197 194 195 228 228 207 215 220 224 210 211 199 208 214 219 222 230
146 140 147 154 303 128 130 227 217 229 255 245 201 196 201 207 210 211 213 206 200 222 216 219 193 203 199 203 201 216 234 229 209 202 213 216 212 208 208 214 218 221 219
153 160 163 152 256 22 63 85 259 238 235 259 250 224 195 194 206 214 213 206 206 215 217 218 206 180 217 184 135 276 265 231 225 207 181 200 215 209 213 224 212 219 221
78 64 57 45 20 358 29 292 309 261 246 251 255 261 215 219 206 206 214 211 210 212 214 201 201 206 216 190 208 100 243 318 299 235 205 199 218 219 234 220 205 187 189
65 63 76 73 55 34 12 349 342 330 317 272 262 255 249 229 214 210 215 214 212 212 216 216 206 204 206 203 206 160 147 217 188 272 238 210 222 212 223 224 186 219 199
80 76 94 80 50 20 22 28 350 269 294 284 266 261 261 246 233 227 224 219 215 212 211 213 218 210 202 206 199 216 143 145 176 263 311 232 217 226 210 185 221 258 255
52 43 54 44 3 343 358 16 350 304 279 299 294 274 256 253 248 234 223 226 218 218 220 216 210 209 206 202 207 165 153 151 128 135 202 251 326 248 182 184 197 242 263
37 42 19 13 344 327 345 328 287 279 292 295 290 280 270 256 256 244 233 220 225 224 223 218 210 206 206 211 198 203 199 191 178 149 157 219 199 263 211 223 226 241 257